Year,Month,Day,Hour,Minute,Value (Times are PST for temperature in C)
2018,02,17,00,00,3.00
2018,02,17,00,01,3.00
2018,02,17,00,02,3.00
2018,02,17,00,03,3.10
2018,02,17,00,04,3.10
2018,02,17,00,05,3.10
2018,02,17,00,06,3.10
2018,02,17,00,07,3.10
2018,02,17,00,08,3.10
2018,02,17,00,09,3.10
2018,02,17,00,10,3.10
2018,02,17,00,11,3.20
2018,02,17,00,12,3.20
2018,02,17,00,13,3.20
2018,02,17,00,14,3.20
2018,02,17,00,15,3.20
2018,02,17,00,16,3.20
2018,02,17,00,17,3.20
2018,02,17,00,18,3.20
2018,02,17,00,19,3.20
2018,02,17,00,20,3.20
2018,02,17,00,21,3.10
2018,02,17,00,22,3.10
2018,02,17,00,23,3.10
2018,02,17,00,24,3.10
2018,02,17,00,25,3.20
2018,02,17,00,26,3.20
2018,02,17,00,27,3.10
2018,02,17,00,28,3.20
2018,02,17,00,29,3.20
2018,02,17,00,30,3.20
2018,02,17,00,31,3.20
2018,02,17,00,32,3.20
2018,02,17,00,33,3.20
2018,02,17,00,34,3.20
2018,02,17,00,35,3.20
2018,02,17,00,36,3.20
2018,02,17,00,37,3.20
2018,02,17,00,38,3.20
2018,02,17,00,39,3.10
2018,02,17,00,40,3.20
2018,02,17,00,41,3.10
2018,02,17,00,42,3.10
2018,02,17,00,43,3.10
2018,02,17,00,44,3.10
2018,02,17,00,45,3.10
2018,02,17,00,46,3.20
2018,02,17,00,47,3.20
2018,02,17,00,48,3.10
2018,02,17,00,49,3.20
2018,02,17,00,50,3.10
2018,02,17,00,51,3.10
2018,02,17,00,52,3.10
2018,02,17,00,53,3.10
2018,02,17,00,54,3.10
2018,02,17,00,55,3.10
2018,02,17,00,56,3.10
2018,02,17,00,57,3.10
2018,02,17,00,58,3.10
2018,02,17,00,59,3.10
2018,02,17,01,00,3.10
2018,02,17,01,01,3.10
2018,02,17,01,02,3.10
2018,02,17,01,03,3.10
2018,02,17,01,04,3.10
2018,02,17,01,05,3.10
2018,02,17,01,06,3.10
2018,02,17,01,07,3.10
2018,02,17,01,08,3.10
2018,02,17,01,09,3.10
2018,02,17,01,10,3.10
2018,02,17,01,11,3.10
2018,02,17,01,12,3.10
2018,02,17,01,13,3.10
2018,02,17,01,14,3.20
2018,02,17,01,15,3.20
2018,02,17,01,16,3.20
2018,02,17,01,17,3.20
2018,02,17,01,18,3.20
2018,02,17,01,19,3.20
2018,02,17,01,20,3.20
2018,02,17,01,21,3.20
2018,02,17,01,22,3.20
2018,02,17,01,23,3.20
2018,02,17,01,24,3.30
2018,02,17,01,25,3.30
2018,02,17,01,26,3.30
2018,02,17,01,27,3.30
2018,02,17,01,28,3.30
2018,02,17,01,29,3.30
2018,02,17,01,30,3.30
2018,02,17,01,31,3.30
2018,02,17,01,32,3.30
2018,02,17,01,33,3.30
2018,02,17,01,34,3.30
2018,02,17,01,35,3.30
2018,02,17,01,36,3.30
2018,02,17,01,37,3.30
2018,02,17,01,38,3.30
2018,02,17,01,39,3.20
2018,02,17,01,40,3.20
2018,02,17,01,41,3.20
2018,02,17,01,42,3.20
2018,02,17,01,43,3.20
2018,02,17,01,44,3.20
2018,02,17,01,45,3.20
2018,02,17,01,46,3.10
2018,02,17,01,47,3.10
2018,02,17,01,48,3.10
2018,02,17,01,49,3.10
2018,02,17,01,50,3.10
2018,02,17,01,51,3.00
2018,02,17,01,52,3.00
2018,02,17,01,53,3.00
2018,02,17,01,54,3.00
2018,02,17,01,55,3.00
2018,02,17,01,56,3.00
2018,02,17,01,57,3.00
2018,02,17,01,58,3.00
2018,02,17,01,59,2.90
2018,02,17,02,00,2.90
2018,02,17,02,01,2.90
2018,02,17,02,02,2.90
2018,02,17,02,03,2.90
2018,02,17,02,04,3.00
2018,02,17,02,05,3.00
2018,02,17,02,06,3.00
2018,02,17,02,07,3.00
2018,02,17,02,08,3.00
2018,02,17,02,09,3.00
2018,02,17,02,10,2.90
2018,02,17,02,11,2.90
2018,02,17,02,12,2.80
2018,02,17,02,13,2.80
2018,02,17,02,14,2.80
2018,02,17,02,15,2.80
2018,02,17,02,16,2.70
2018,02,17,02,17,2.70
2018,02,17,02,18,2.70
2018,02,17,02,19,2.70
2018,02,17,02,20,2.70
2018,02,17,02,21,2.70
2018,02,17,02,22,2.70
2018,02,17,02,23,2.70
2018,02,17,02,24,2.70
2018,02,17,02,25,2.70
2018,02,17,02,26,2.60
2018,02,17,02,27,2.60
2018,02,17,02,28,2.60
2018,02,17,02,29,2.60
2018,02,17,02,30,2.60
2018,02,17,02,31,2.60
2018,02,17,02,32,2.60
2018,02,17,02,33,2.60
2018,02,17,02,34,2.60
2018,02,17,02,35,2.60
2018,02,17,02,36,2.60
2018,02,17,02,37,2.60
2018,02,17,02,38,2.60
2018,02,17,02,39,2.60
2018,02,17,02,40,2.50
2018,02,17,02,41,2.50
2018,02,17,02,42,2.50
2018,02,17,02,43,2.50
2018,02,17,02,44,2.50
2018,02,17,02,45,2.50
2018,02,17,02,46,2.50
2018,02,17,02,47,2.40
2018,02,17,02,48,2.40
2018,02,17,02,49,2.40
2018,02,17,02,50,2.40
2018,02,17,02,51,2.40
2018,02,17,02,52,2.40
2018,02,17,02,53,2.30
2018,02,17,02,54,2.30
2018,02,17,02,55,2.30
2018,02,17,02,56,2.30
2018,02,17,02,57,2.30
2018,02,17,02,58,2.30
2018,02,17,02,59,2.30
2018,02,17,03,00,2.20
2018,02,17,03,01,2.20
2018,02,17,03,02,2.20
2018,02,17,03,03,2.20
2018,02,17,03,04,2.20
2018,02,17,03,05,2.20
2018,02,17,03,06,2.20
2018,02,17,03,07,2.20
2018,02,17,03,08,2.10
2018,02,17,03,09,2.10
2018,02,17,03,10,2.10
2018,02,17,03,11,2.00
2018,02,17,03,12,2.00
2018,02,17,03,13,2.00
2018,02,17,03,14,1.90
2018,02,17,03,15,1.90
2018,02,17,03,16,1.90
2018,02,17,03,17,1.80
2018,02,17,03,18,1.80
2018,02,17,03,19,1.80
2018,02,17,03,20,1.80
2018,02,17,03,21,1.70
2018,02,17,03,22,1.70
2018,02,17,03,23,1.70
2018,02,17,03,24,1.70
2018,02,17,03,25,1.60
2018,02,17,03,26,1.60
2018,02,17,03,27,1.60
2018,02,17,03,28,1.60
2018,02,17,03,29,1.60
2018,02,17,03,30,1.50
2018,02,17,03,31,1.50
2018,02,17,03,32,1.50
2018,02,17,03,33,1.50
2018,02,17,03,34,1.40
2018,02,17,03,35,1.40
2018,02,17,03,36,1.40
2018,02,17,03,37,1.40
2018,02,17,03,38,1.40
2018,02,17,03,39,1.40
2018,02,17,03,40,1.40
2018,02,17,03,41,1.40
2018,02,17,03,42,1.40
2018,02,17,03,43,1.40
2018,02,17,03,44,1.40
2018,02,17,03,45,1.30
2018,02,17,03,46,1.30
2018,02,17,03,47,1.30
2018,02,17,03,48,1.30
2018,02,17,03,49,1.30
2018,02,17,03,50,1.30
2018,02,17,03,51,1.30
2018,02,17,03,52,1.30
2018,02,17,03,53,1.30
2018,02,17,03,54,1.30
2018,02,17,03,55,1.30
2018,02,17,03,56,1.30
2018,02,17,03,57,1.30
2018,02,17,03,58,1.30
2018,02,17,03,59,1.20
2018,02,17,04,00,1.20
2018,02,17,04,01,1.20
2018,02,17,04,02,1.20
2018,02,17,04,03,1.20
2018,02,17,04,04,1.20
2018,02,17,04,05,1.20
2018,02,17,04,06,1.20
2018,02,17,04,07,1.20
2018,02,17,04,08,1.20
2018,02,17,04,09,1.20
2018,02,17,04,10,1.20
2018,02,17,04,11,1.20
2018,02,17,04,12,1.20
2018,02,17,04,13,1.20
2018,02,17,04,14,1.20
2018,02,17,04,15,1.20
2018,02,17,04,16,1.20
2018,02,17,04,17,1.20
2018,02,17,04,18,1.20
2018,02,17,04,19,1.20
2018,02,17,04,20,1.20
2018,02,17,04,21,1.20
2018,02,17,04,22,1.20
2018,02,17,04,23,1.20
2018,02,17,04,24,1.20
2018,02,17,04,25,1.30
2018,02,17,04,26,1.30
2018,02,17,04,27,1.30
2018,02,17,04,28,1.30
2018,02,17,04,29,1.30
2018,02,17,04,30,1.30
2018,02,17,04,31,1.30
2018,02,17,04,32,1.30
2018,02,17,04,33,1.30
2018,02,17,04,34,1.30
2018,02,17,04,35,1.30
2018,02,17,04,36,1.30
2018,02,17,04,37,1.30
2018,02,17,04,38,1.30
2018,02,17,04,39,1.30
2018,02,17,04,40,1.30
2018,02,17,04,41,1.30
2018,02,17,04,42,1.30
2018,02,17,04,43,1.30
2018,02,17,04,44,1.30
2018,02,17,04,45,1.30
2018,02,17,04,46,1.30
2018,02,17,04,47,1.30
2018,02,17,04,48,1.20
2018,02,17,04,49,1.20
2018,02,17,04,50,1.20
2018,02,17,04,51,1.20
2018,02,17,04,52,1.20
2018,02,17,04,53,1.10
2018,02,17,04,54,1.10
2018,02,17,04,55,1.10
2018,02,17,04,56,1.10
2018,02,17,04,57,1.10
2018,02,17,04,58,1.10
2018,02,17,04,59,1.10
2018,02,17,05,00,1.00
2018,02,17,05,01,1.00
2018,02,17,05,02,1.00
2018,02,17,05,03,1.00
2018,02,17,05,04,1.00
2018,02,17,05,05,1.00
2018,02,17,05,06,1.00
2018,02,17,05,07,1.00
2018,02,17,05,08,1.10
2018,02,17,05,09,1.10
2018,02,17,05,10,1.20
2018,02,17,05,11,1.30
2018,02,17,05,12,1.40
2018,02,17,05,13,1.50
2018,02,17,05,14,1.60
2018,02,17,05,15,1.70
2018,02,17,05,16,1.80
2018,02,17,05,17,1.90
2018,02,17,05,18,1.90
2018,02,17,05,19,2.00
2018,02,17,05,20,2.10
2018,02,17,05,21,2.10
2018,02,17,05,22,2.20
2018,02,17,05,23,2.30
2018,02,17,05,24,2.30
2018,02,17,05,25,2.40
2018,02,17,05,26,2.40
2018,02,17,05,27,2.40
2018,02,17,05,28,2.40
2018,02,17,05,29,2.40
2018,02,17,05,30,2.40
2018,02,17,05,31,2.40
2018,02,17,05,32,2.40
2018,02,17,05,33,2.40
2018,02,17,05,34,2.40
2018,02,17,05,35,2.40
2018,02,17,05,36,2.40
2018,02,17,05,37,2.40
2018,02,17,05,38,2.40
2018,02,17,05,39,2.40
2018,02,17,05,40,2.40
2018,02,17,05,41,2.40
2018,02,17,05,42,2.30
2018,02,17,05,43,2.30
2018,02,17,05,44,2.30
2018,02,17,05,45,2.20
2018,02,17,05,46,2.20
2018,02,17,05,47,2.20
2018,02,17,05,48,2.20
2018,02,17,05,49,2.20
2018,02,17,05,50,2.20
2018,02,17,05,51,2.20
2018,02,17,05,52,2.20
2018,02,17,05,53,2.20
2018,02,17,05,54,2.20
2018,02,17,05,55,2.20
2018,02,17,05,56,2.20
2018,02,17,05,57,2.20
2018,02,17,05,58,2.20
2018,02,17,05,59,2.20
2018,02,17,06,00,2.20
2018,02,17,06,01,2.20
2018,02,17,06,02,2.20
2018,02,17,06,03,2.20
2018,02,17,06,04,2.20
2018,02,17,06,05,2.20
2018,02,17,06,06,2.20
2018,02,17,06,07,2.20
2018,02,17,06,08,2.20
2018,02,17,06,09,2.20
2018,02,17,06,10,2.20
2018,02,17,06,11,2.20
2018,02,17,06,12,2.20
2018,02,17,06,13,2.20
2018,02,17,06,14,2.20
2018,02,17,06,15,2.20
2018,02,17,06,16,2.20
2018,02,17,06,17,2.20
2018,02,17,06,18,2.20
2018,02,17,06,19,2.20
2018,02,17,06,20,2.20
2018,02,17,06,21,2.30
2018,02,17,06,22,2.30
2018,02,17,06,23,2.30
2018,02,17,06,24,2.30
2018,02,17,06,25,2.30
2018,02,17,06,26,2.30
2018,02,17,06,27,2.30
2018,02,17,06,28,2.30
2018,02,17,06,29,2.30
2018,02,17,06,30,2.30
2018,02,17,06,31,2.30
2018,02,17,06,32,2.30
2018,02,17,06,33,2.30
2018,02,17,06,34,2.30
2018,02,17,06,35,2.40
2018,02,17,06,36,2.40
2018,02,17,06,37,2.40
2018,02,17,06,38,2.40
2018,02,17,06,39,2.40
2018,02,17,06,40,2.50
2018,02,17,06,41,2.60
2018,02,17,06,42,2.60
2018,02,17,06,43,2.60
2018,02,17,06,44,2.70
2018,02,17,06,45,2.70
2018,02,17,06,46,2.80
2018,02,17,06,47,2.80
2018,02,17,06,48,2.80
2018,02,17,06,49,2.80
2018,02,17,06,50,2.80
2018,02,17,06,51,2.80
2018,02,17,06,52,2.80
2018,02,17,06,53,2.80
2018,02,17,06,54,2.80
2018,02,17,06,55,2.80
2018,02,17,06,56,2.80
2018,02,17,06,57,2.80
2018,02,17,06,58,2.80
2018,02,17,06,59,2.80
2018,02,17,07,00,2.80
2018,02,17,07,01,2.80
2018,02,17,07,02,2.80
2018,02,17,07,03,2.80
2018,02,17,07,04,2.80
2018,02,17,07,05,2.80
2018,02,17,07,06,2.80
2018,02,17,07,07,2.80
2018,02,17,07,08,2.80
2018,02,17,07,09,2.80
2018,02,17,07,10,2.80
2018,02,17,07,11,2.80
2018,02,17,07,12,2.80
2018,02,17,07,13,2.80
2018,02,17,07,14,2.80
2018,02,17,07,15,2.80
2018,02,17,07,16,2.80
2018,02,17,07,17,2.80
2018,02,17,07,18,2.80
2018,02,17,07,19,2.80
2018,02,17,07,20,2.80
2018,02,17,07,21,2.80
2018,02,17,07,22,2.90
2018,02,17,07,23,2.90
2018,02,17,07,24,2.90
2018,02,17,07,25,2.90
2018,02,17,07,26,2.90
2018,02,17,07,27,2.90
2018,02,17,07,28,2.90
2018,02,17,07,29,2.90
2018,02,17,07,30,2.90
2018,02,17,07,31,2.90
2018,02,17,07,32,2.90
2018,02,17,07,33,2.90
2018,02,17,07,34,2.90
2018,02,17,07,35,3.00
2018,02,17,07,36,3.00
2018,02,17,07,37,3.00
2018,02,17,07,38,3.10
2018,02,17,07,39,3.10
2018,02,17,07,40,3.10
2018,02,17,07,41,3.10
2018,02,17,07,42,3.10
2018,02,17,07,43,3.10
2018,02,17,07,44,3.10
2018,02,17,07,45,3.10
2018,02,17,07,46,3.20
2018,02,17,07,47,3.20
2018,02,17,07,48,3.20
2018,02,17,07,49,3.20
2018,02,17,07,50,3.20
2018,02,17,07,51,3.20
2018,02,17,07,52,3.20
2018,02,17,07,53,3.20
2018,02,17,07,54,3.20
2018,02,17,07,55,3.20
2018,02,17,07,56,3.20
2018,02,17,07,57,3.30
2018,02,17,07,58,3.30
2018,02,17,07,59,3.20
2018,02,17,08,00,3.20
2018,02,17,08,01,3.30
2018,02,17,08,02,3.20
2018,02,17,08,03,3.20
2018,02,17,08,04,3.20
2018,02,17,08,05,3.20
2018,02,17,08,06,3.20
2018,02,17,08,07,3.10
2018,02,17,08,08,3.10
2018,02,17,08,09,3.10
2018,02,17,08,10,3.10
2018,02,17,08,11,3.00
2018,02,17,08,12,3.00
2018,02,17,08,13,3.00
2018,02,17,08,14,2.90
2018,02,17,08,15,2.90
2018,02,17,08,16,2.80
2018,02,17,08,17,2.80
2018,02,17,08,18,2.80
2018,02,17,08,19,2.80
2018,02,17,08,20,2.70
2018,02,17,08,21,2.70
2018,02,17,08,22,2.70
2018,02,17,08,23,2.70
2018,02,17,08,24,2.70
2018,02,17,08,25,2.70
2018,02,17,08,26,2.70
2018,02,17,08,27,2.70
2018,02,17,08,28,2.70
2018,02,17,08,29,2.70
2018,02,17,08,30,2.70
2018,02,17,08,31,2.70
2018,02,17,08,32,2.70
2018,02,17,08,33,2.70
2018,02,17,08,34,2.70
2018,02,17,08,35,2.70
2018,02,17,08,36,2.70
2018,02,17,08,37,2.70
2018,02,17,08,38,2.70
2018,02,17,08,39,2.70
2018,02,17,08,40,2.70
2018,02,17,08,41,2.70
2018,02,17,08,42,2.70
2018,02,17,08,43,2.70
2018,02,17,08,44,2.70
2018,02,17,08,45,2.70
2018,02,17,08,46,2.70
2018,02,17,08,47,2.70
2018,02,17,08,48,2.70
2018,02,17,08,49,2.70
2018,02,17,08,50,2.70
2018,02,17,08,51,2.70
2018,02,17,08,52,2.70
2018,02,17,08,53,2.70
2018,02,17,08,54,2.60
2018,02,17,08,55,2.60
2018,02,17,08,56,2.60
2018,02,17,08,57,2.60
2018,02,17,08,58,2.60
2018,02,17,08,59,2.60
2018,02,17,09,00,2.60
2018,02,17,09,01,2.60
2018,02,17,09,02,2.60
2018,02,17,09,03,2.60
2018,02,17,09,04,2.60
2018,02,17,09,05,2.50
2018,02,17,09,06,2.50
2018,02,17,09,07,2.50
2018,02,17,09,08,2.50
2018,02,17,09,09,2.50
2018,02,17,09,10,2.50
2018,02,17,09,11,2.40
2018,02,17,09,12,2.40
2018,02,17,09,13,2.40
2018,02,17,09,14,2.40
2018,02,17,09,15,2.40
2018,02,17,09,16,2.40
2018,02,17,09,17,2.40
2018,02,17,09,18,2.40
2018,02,17,09,19,2.40
2018,02,17,09,20,2.40
2018,02,17,09,21,2.30
2018,02,17,09,22,2.30
2018,02,17,09,23,2.30
2018,02,17,09,24,2.30
2018,02,17,09,25,2.30
2018,02,17,09,26,2.30
2018,02,17,09,27,2.30
2018,02,17,09,28,2.30
2018,02,17,09,29,2.30
2018,02,17,09,30,2.30
2018,02,17,09,31,2.20
2018,02,17,09,32,2.20
2018,02,17,09,33,2.20
2018,02,17,09,34,2.20
2018,02,17,09,35,2.20
2018,02,17,09,36,2.20
2018,02,17,09,37,2.20
2018,02,17,09,38,2.20
2018,02,17,09,39,2.20
2018,02,17,09,40,2.20
2018,02,17,09,41,2.20
2018,02,17,09,42,2.20
2018,02,17,09,43,2.20
2018,02,17,09,44,2.20
2018,02,17,09,45,2.20
2018,02,17,09,46,2.20
2018,02,17,09,47,2.20
2018,02,17,09,48,2.30
2018,02,17,09,49,2.30
2018,02,17,09,50,2.30
2018,02,17,09,51,2.30
2018,02,17,09,52,2.30
2018,02,17,09,53,2.30
2018,02,17,09,54,2.40
2018,02,17,09,55,2.40
2018,02,17,09,56,2.40
2018,02,17,09,57,2.40
2018,02,17,09,58,2.40
2018,02,17,09,59,2.30
2018,02,17,10,00,2.30
2018,02,17,10,01,2.30
2018,02,17,10,02,2.30
2018,02,17,10,03,2.20
2018,02,17,10,04,2.20
2018,02,17,10,05,2.20
2018,02,17,10,06,2.10
2018,02,17,10,07,2.10
2018,02,17,10,08,2.10
2018,02,17,10,09,2.10
2018,02,17,10,10,2.00
2018,02,17,10,11,2.00
2018,02,17,10,12,2.00
2018,02,17,10,13,2.00
2018,02,17,10,14,1.90
2018,02,17,10,15,1.90
2018,02,17,10,16,1.90
2018,02,17,10,17,1.80
2018,02,17,10,18,1.70
2018,02,17,10,19,1.60
2018,02,17,10,20,1.50
2018,02,17,10,21,1.50
2018,02,17,10,22,1.40
2018,02,17,10,23,1.30
2018,02,17,10,24,1.20
2018,02,17,10,25,1.20
2018,02,17,10,26,1.10
2018,02,17,10,27,1.10
2018,02,17,10,28,1.00
2018,02,17,10,29,1.00
2018,02,17,10,30,0.90
2018,02,17,10,31,0.90
2018,02,17,10,32,0.90
2018,02,17,10,33,0.80
2018,02,17,10,34,0.80
2018,02,17,10,35,0.80
2018,02,17,10,36,0.80
2018,02,17,10,37,0.70
2018,02,17,10,38,0.70
2018,02,17,10,39,0.70
2018,02,17,10,40,0.70
2018,02,17,10,41,0.70
2018,02,17,10,42,0.70
2018,02,17,10,43,0.70
2018,02,17,10,44,0.70
2018,02,17,10,45,0.70
2018,02,17,10,46,0.70
2018,02,17,10,47,0.70
2018,02,17,10,48,0.70
2018,02,17,10,49,0.70
2018,02,17,10,50,0.70
2018,02,17,10,51,0.70
2018,02,17,10,52,0.70
2018,02,17,10,53,0.70
2018,02,17,10,54,0.70
2018,02,17,10,55,0.80
2018,02,17,10,56,0.80
2018,02,17,10,57,0.80
2018,02,17,10,58,0.80
2018,02,17,10,59,0.80
2018,02,17,11,00,0.80
2018,02,17,11,01,0.80
2018,02,17,11,02,0.80
2018,02,17,11,03,0.90
2018,02,17,11,04,0.90
2018,02,17,11,05,0.90
2018,02,17,11,06,0.90
2018,02,17,11,07,1.00
2018,02,17,11,08,1.00
2018,02,17,11,09,1.10
2018,02,17,11,10,1.10
2018,02,17,11,11,1.10
2018,02,17,11,12,1.10
2018,02,17,11,13,1.20
2018,02,17,11,14,1.20
2018,02,17,11,15,1.20
2018,02,17,11,16,1.30
2018,02,17,11,17,1.30
2018,02,17,11,18,1.30
2018,02,17,11,19,1.30
2018,02,17,11,20,1.30
2018,02,17,11,21,1.40
2018,02,17,11,22,1.40
2018,02,17,11,23,1.40
2018,02,17,11,24,1.40
2018,02,17,11,25,1.40
2018,02,17,11,26,1.50
2018,02,17,11,27,1.50
2018,02,17,11,28,1.50
2018,02,17,11,29,1.60
2018,02,17,11,30,1.60
2018,02,17,11,31,1.60
2018,02,17,11,32,1.60
2018,02,17,11,33,1.60
2018,02,17,11,34,1.70
2018,02,17,11,35,1.70
2018,02,17,11,36,1.70
2018,02,17,11,37,1.80
2018,02,17,11,38,1.80
2018,02,17,11,39,1.80
2018,02,17,11,40,1.80
2018,02,17,11,41,1.90
2018,02,17,11,42,1.90
2018,02,17,11,43,1.90
2018,02,17,11,44,2.00
2018,02,17,11,45,2.00
2018,02,17,11,46,2.00
2018,02,17,11,47,2.10
2018,02,17,11,48,2.10
2018,02,17,11,49,2.20
2018,02,17,11,50,2.20
2018,02,17,11,51,2.30
2018,02,17,11,52,2.30
2018,02,17,11,53,2.30
2018,02,17,11,54,2.30
2018,02,17,11,55,2.40
2018,02,17,11,56,2.40
2018,02,17,11,57,2.40
2018,02,17,11,58,2.40
2018,02,17,11,59,2.40
2018,02,17,12,00,2.40
2018,02,17,12,01,2.50
2018,02,17,12,02,2.50
2018,02,17,12,03,2.50
2018,02,17,12,04,2.50
2018,02,17,12,05,2.50
2018,02,17,12,06,2.60
2018,02,17,12,07,2.60
2018,02,17,12,08,2.70
2018,02,17,12,09,2.70
2018,02,17,12,10,2.70
2018,02,17,12,11,2.70
2018,02,17,12,12,2.80
2018,02,17,12,13,2.80
2018,02,17,12,14,2.80
2018,02,17,12,15,2.90
2018,02,17,12,16,2.90
2018,02,17,12,17,2.90
2018,02,17,12,18,2.90
2018,02,17,12,19,2.90
2018,02,17,12,20,2.90
2018,02,17,12,21,2.90
2018,02,17,12,22,2.90
2018,02,17,12,23,2.90
2018,02,17,12,24,2.90
2018,02,17,12,25,3.00
2018,02,17,12,26,3.00
2018,02,17,12,27,3.00
2018,02,17,12,28,3.00
2018,02,17,12,29,3.00
2018,02,17,12,30,3.00
2018,02,17,12,31,3.00
2018,02,17,12,32,3.00
2018,02,17,12,33,3.10
2018,02,17,12,34,3.10
2018,02,17,12,35,3.20
2018,02,17,12,36,3.20
2018,02,17,12,37,3.20
2018,02,17,12,38,3.30
2018,02,17,12,39,3.30
2018,02,17,12,40,3.30
2018,02,17,12,41,3.30
2018,02,17,12,42,3.40
2018,02,17,12,43,3.50
2018,02,17,12,44,3.60
2018,02,17,12,45,3.60
2018,02,17,12,46,3.60
2018,02,17,12,47,3.60
2018,02,17,12,48,3.70
2018,02,17,12,49,3.70
2018,02,17,12,50,3.70
2018,02,17,12,51,3.70
2018,02,17,12,52,3.70
2018,02,17,12,53,3.70
2018,02,17,12,54,3.70
2018,02,17,12,55,3.60
2018,02,17,12,56,3.60
2018,02,17,12,57,3.60
2018,02,17,12,58,3.60
2018,02,17,12,59,3.60
2018,02,17,13,00,3.60
2018,02,17,13,01,3.60
2018,02,17,13,02,3.60
2018,02,17,13,03,3.60
2018,02,17,13,04,3.60
2018,02,17,13,05,3.60
2018,02,17,13,06,3.60
2018,02,17,13,07,3.60
2018,02,17,13,08,3.60
2018,02,17,13,09,3.60
2018,02,17,13,10,3.70
2018,02,17,13,11,3.70
2018,02,17,13,12,3.70
2018,02,17,13,13,3.80
2018,02,17,13,14,3.80
2018,02,17,13,15,3.80
2018,02,17,13,16,3.80
2018,02,17,13,17,3.70
2018,02,17,13,18,3.70
2018,02,17,13,19,3.70
2018,02,17,13,20,3.70
2018,02,17,13,21,3.70
2018,02,17,13,22,3.70
2018,02,17,13,23,3.60
2018,02,17,13,24,3.70
2018,02,17,13,25,3.70
2018,02,17,13,26,3.60
2018,02,17,13,27,3.60
2018,02,17,13,28,3.60
2018,02,17,13,29,3.60
2018,02,17,13,30,3.60
2018,02,17,13,31,3.60
2018,02,17,13,32,3.60
2018,02,17,13,33,3.60
2018,02,17,13,34,3.60
2018,02,17,13,35,3.60
2018,02,17,13,36,3.60
2018,02,17,13,37,3.60
2018,02,17,13,38,3.50
2018,02,17,13,39,3.50
2018,02,17,13,40,3.50
2018,02,17,13,41,3.50
2018,02,17,13,42,3.60
2018,02,17,13,43,3.60
2018,02,17,13,44,3.60
2018,02,17,13,45,3.60
2018,02,17,13,46,3.60
2018,02,17,13,47,3.60
2018,02,17,13,48,3.60
2018,02,17,13,49,3.60
2018,02,17,13,50,3.60
2018,02,17,13,51,3.60
2018,02,17,13,52,3.60
2018,02,17,13,53,3.70
2018,02,17,13,54,3.70
2018,02,17,13,55,3.70
2018,02,17,13,56,3.70
2018,02,17,13,57,3.80
2018,02,17,13,58,3.80
2018,02,17,13,59,3.80
2018,02,17,14,00,3.80
2018,02,17,14,01,3.90
2018,02,17,14,02,3.90
2018,02,17,14,03,4.00
2018,02,17,14,04,4.00
2018,02,17,14,05,4.00
2018,02,17,14,06,4.00
2018,02,17,14,07,4.10
2018,02,17,14,08,4.10
2018,02,17,14,09,4.10
2018,02,17,14,10,4.10
2018,02,17,14,11,4.10
2018,02,17,14,12,4.10
2018,02,17,14,13,4.10
2018,02,17,14,14,4.10
2018,02,17,14,15,4.10
2018,02,17,14,16,4.10
2018,02,17,14,17,4.10
2018,02,17,14,18,4.10
2018,02,17,14,19,4.10
2018,02,17,14,20,4.10
2018,02,17,14,21,4.10
2018,02,17,14,22,4.20
2018,02,17,14,23,4.20
2018,02,17,14,24,4.20
2018,02,17,14,25,4.20
2018,02,17,14,26,4.30
2018,02,17,14,27,4.30
2018,02,17,14,28,4.30
2018,02,17,14,29,4.30
2018,02,17,14,30,4.40
2018,02,17,14,31,4.40
2018,02,17,14,32,4.40
2018,02,17,14,33,4.40
2018,02,17,14,34,4.40
2018,02,17,14,35,4.40
2018,02,17,14,36,4.40
2018,02,17,14,37,4.40
2018,02,17,14,38,4.40
2018,02,17,14,39,4.50
2018,02,17,14,40,4.50
2018,02,17,14,41,4.40
2018,02,17,14,42,4.40
2018,02,17,14,43,4.50
2018,02,17,14,44,4.50
2018,02,17,14,45,4.50
2018,02,17,14,46,4.60
2018,02,17,14,47,4.60
2018,02,17,14,48,4.60
2018,02,17,14,49,4.60
2018,02,17,14,50,4.60
2018,02,17,14,51,4.60
2018,02,17,14,52,4.60
2018,02,17,14,53,4.50
2018,02,17,14,54,4.50
2018,02,17,14,55,4.50
2018,02,17,14,56,4.50
2018,02,17,14,57,4.50
2018,02,17,14,58,4.50
2018,02,17,14,59,4.50
2018,02,17,15,00,4.60
2018,02,17,15,01,4.60
2018,02,17,15,02,4.60
2018,02,17,15,03,4.60
2018,02,17,15,04,4.60
2018,02,17,15,05,4.60
2018,02,17,15,06,4.60
2018,02,17,15,07,4.70
2018,02,17,15,08,4.70
2018,02,17,15,09,4.70
2018,02,17,15,10,4.70
2018,02,17,15,11,4.80
2018,02,17,15,12,4.80
2018,02,17,15,13,4.80
2018,02,17,15,14,4.80
2018,02,17,15,15,4.80
2018,02,17,15,16,4.90
2018,02,17,15,17,4.90
2018,02,17,15,18,4.90
2018,02,17,15,19,5.00
2018,02,17,15,20,5.00
2018,02,17,15,21,5.10
2018,02,17,15,22,5.10
2018,02,17,15,23,5.10
2018,02,17,15,24,5.10
2018,02,17,15,25,5.10
2018,02,17,15,26,5.10
2018,02,17,15,27,5.10
2018,02,17,15,28,5.20
2018,02,17,15,29,5.20
2018,02,17,15,30,5.20
2018,02,17,15,31,5.20
2018,02,17,15,32,5.30
2018,02,17,15,33,5.30
2018,02,17,15,34,5.30
2018,02,17,15,35,5.30
2018,02,17,15,36,5.40
2018,02,17,15,37,5.40
2018,02,17,15,38,5.40
2018,02,17,15,39,5.40
2018,02,17,15,40,5.40
2018,02,17,15,41,5.40
2018,02,17,15,42,5.40
2018,02,17,15,43,5.50
2018,02,17,15,44,5.50
2018,02,17,15,45,5.50
2018,02,17,15,46,5.60
2018,02,17,15,47,5.60
2018,02,17,15,48,5.60
2018,02,17,15,49,5.60
2018,02,17,15,50,5.60
2018,02,17,15,51,5.60
2018,02,17,15,52,5.60
2018,02,17,15,53,5.70
2018,02,17,15,54,5.70
2018,02,17,15,55,5.70
2018,02,17,15,56,5.70
2018,02,17,15,57,5.70
2018,02,17,15,58,5.70
2018,02,17,15,59,5.70
2018,02,17,16,00,5.70
2018,02,17,16,01,5.80
2018,02,17,16,02,5.80
2018,02,17,16,03,5.80
2018,02,17,16,04,5.80
2018,02,17,16,05,5.80
2018,02,17,16,06,5.80
2018,02,17,16,07,5.80
2018,02,17,16,08,5.70
2018,02,17,16,09,5.70
2018,02,17,16,10,5.70
2018,02,17,16,11,5.70
2018,02,17,16,12,5.60
2018,02,17,16,13,5.60
2018,02,17,16,14,5.60
2018,02,17,16,15,5.60
2018,02,17,16,16,5.60
2018,02,17,16,17,5.50
2018,02,17,16,18,5.40
2018,02,17,16,19,5.40
2018,02,17,16,20,5.40
2018,02,17,16,21,5.30
2018,02,17,16,22,5.30
2018,02,17,16,23,5.30
2018,02,17,16,24,5.30
2018,02,17,16,25,5.30
2018,02,17,16,26,5.30
2018,02,17,16,27,5.30
2018,02,17,16,28,5.30
2018,02,17,16,29,5.30
2018,02,17,16,30,5.20
2018,02,17,16,31,5.20
2018,02,17,16,32,5.20
2018,02,17,16,33,5.20
2018,02,17,16,34,5.20
2018,02,17,16,35,5.20
2018,02,17,16,36,5.20
2018,02,17,16,37,5.20
2018,02,17,16,38,5.10
2018,02,17,16,39,5.10
2018,02,17,16,40,5.10
2018,02,17,16,41,5.10
2018,02,17,16,42,5.10
2018,02,17,16,43,5.10
2018,02,17,16,44,5.00
2018,02,17,16,45,5.00
2018,02,17,16,46,5.00
2018,02,17,16,47,4.90
2018,02,17,16,48,4.90
2018,02,17,16,49,4.90
2018,02,17,16,50,4.90
2018,02,17,16,51,4.90
2018,02,17,16,52,4.80
2018,02,17,16,53,4.80
2018,02,17,16,54,4.80
2018,02,17,16,55,4.80
2018,02,17,16,56,4.80
2018,02,17,16,57,4.80
2018,02,17,16,58,4.80
2018,02,17,16,59,4.70
2018,02,17,17,00,4.70
2018,02,17,17,01,4.70
2018,02,17,17,02,4.70
2018,02,17,17,03,4.70
2018,02,17,17,04,4.60
2018,02,17,17,05,4.60
2018,02,17,17,06,4.60
2018,02,17,17,07,4.60
2018,02,17,17,08,4.60
2018,02,17,17,09,4.60
2018,02,17,17,10,4.60
2018,02,17,17,11,4.60
2018,02,17,17,12,4.60
2018,02,17,17,13,4.60
2018,02,17,17,14,4.60
2018,02,17,17,15,4.50
2018,02,17,17,16,4.50
2018,02,17,17,17,4.50
2018,02,17,17,18,4.50
2018,02,17,17,19,4.50
2018,02,17,17,20,4.50
2018,02,17,17,21,4.50
2018,02,17,17,22,4.50
2018,02,17,17,23,4.50
2018,02,17,17,24,4.40
2018,02,17,17,25,4.40
2018,02,17,17,26,4.40
2018,02,17,17,27,4.40
2018,02,17,17,28,4.40
2018,02,17,17,29,4.40
2018,02,17,17,30,4.40
2018,02,17,17,31,4.40
2018,02,17,17,32,4.40
2018,02,17,17,33,4.40
2018,02,17,17,34,4.40
2018,02,17,17,35,4.40
2018,02,17,17,36,4.40
2018,02,17,17,37,4.40
2018,02,17,17,38,4.40
2018,02,17,17,39,4.40
2018,02,17,17,40,4.30
2018,02,17,17,41,4.30
2018,02,17,17,42,4.30
2018,02,17,17,43,4.30
2018,02,17,17,44,4.30
2018,02,17,17,45,4.30
2018,02,17,17,46,4.30
2018,02,17,17,47,4.30
2018,02,17,17,48,4.30
2018,02,17,17,49,4.20
2018,02,17,17,50,4.20
2018,02,17,17,51,4.20
2018,02,17,17,52,4.20
2018,02,17,17,53,4.20
2018,02,17,17,54,4.20
2018,02,17,17,55,4.20
2018,02,17,17,56,4.20
2018,02,17,17,57,4.20
2018,02,17,17,58,4.10
2018,02,17,17,59,4.10
2018,02,17,18,00,4.10
2018,02,17,18,01,4.10
2018,02,17,18,02,4.10
2018,02,17,18,03,4.10
2018,02,17,18,04,4.10
2018,02,17,18,05,4.00
2018,02,17,18,06,4.00